Home   Weather   Cupertino   Past weeks

Flag for USA Past Weather in Cupertino, California, USA — Yesterday and Last 2 Weeks

Now
61 °F

Overcast.


Feels Like: 61 °F
Forecast: 56 / 62 °F
Wind: 7 mph from South

Location: Moffett Field

Current Time: Dec 10, 2016 at 6:43:24 am

Latest Report: Dec 10, 2016 at 5:56 am


Visibility: 10 mi

Pressure: 30.13 "Hg

Humidity: 83%

Dew Point: 56 °F

Location of CupertinoLocation

Past Weather in Cupertino — Graph

°F

Cupertino Temperature Yesterday

Maximum temperature yesterday: 65 °F (at 10:56 am)
Minimum temperature yesterday: 56 °F (at 3:56 am)
Average temperature yesterday: 61 °F

High & Low Weather Summary for the Past Weeks

 TemperatureHumidityPressure
High65 °F (Dec 9, 10:56 am)93% (Nov 26, 6:56 pm)30.30 "Hg (Nov 26, 6:56 pm)
Low39 °F (Dec 7, 3:56 am)25% (Dec 2, 1:56 pm)29.85 "Hg (Nov 26, 3:56 am)
Average52 °F71%30.12 "Hg
* Reported Nov 25 4:56 am — Dec 10 4:56 am, Cupertino, Weather by CustomWeather, © 2016

Note: Actual official high and low records may vary slightly from our data, if they occured in-between our weather recording intervals... More about our weather records

Advertising

Cupertino Weather History for the Previous 24 Hours

Scroll right to see more
 ConditionsComfort  
Time TempWeatherWind HumidityBarometerVisibility
4:56 am
Sat, Dec 10
61 °FOvercast.7 mph87%30.12 "Hg10 mi
3:56 am60 °FLight rain. Mostly cloudy.6 mph90%30.14 "Hg9 mi
2:56 am61 °FOvercast.5 mph87%30.14 "Hg10 mi
1:56 am61 °FLight rain. Overcast.7 mph83%30.14 "Hg8 mi
12:56 am62 °FLight rain. Overcast.9 mph80%30.14 "Hg10 mi
11:56 pm
Fri, Dec 9
63 °FOvercast.14 mph75%30.14 "Hg10 mi
10:56 pm63 °FMostly cloudy.12 mph75%30.14 "Hg10 mi
9:56 pm63 °FMostly cloudy.9 mph73%30.14 "Hg10 mi
8:56 pm63 °FOvercast.6 mph73%30.16 "Hg10 mi
7:56 pm62 °FMostly cloudy.6 mph73%30.16 "Hg10 mi
6:56 pm63 °FOvercast.5 mph68%30.16 "Hg10 mi
5:56 pm63 °FOvercast.5 mph68%30.17 "Hg10 mi
4:56 pm63 °FMostly cloudy.No wind75%30.17 "Hg10 mi
3:56 pm65 °FOvercast.7 mph66%30.18 "Hg10 mi
2:56 pm65 °FMostly cloudy.8 mph68%30.18 "Hg10 mi
1:56 pm65 °FPartly sunny.5 mph70%30.19 "Hg10 mi
12:56 pm64 °FOvercast.5 mph73%30.20 "Hg10 mi
11:56 am65 °FPartly sunny.6 mph66%30.23 "Hg10 mi
10:56 am65 °FBroken clouds.8 mph68%30.26 "Hg10 mi
9:56 am63 °FScattered clouds.7 mph73%30.27 "Hg10 mi
8:56 am59 °FPartly sunny.5 mph84%30.26 "Hg10 mi
7:56 am58 °FPartly sunny.6 mph87%30.24 "Hg10 mi
6:56 am58 °FClear.8 mph87%30.22 "Hg10 mi
Weather by CustomWeather, © 2016

See weather overviewHow to use our weather pages